Regional Weather Roundup
Issued by NWS

Current Version | Previous Version | Text Only | Print | Product List | Glossary Off
Versions: 1 2 3 4 5 6 7 8 9 10 11 12 13 14 15 16 17 18 19 20 21 22 23 24 25 26 27 28 29 30 31 32 33 34 35 36 37 38 39 40 41 42 43 44 45 46 47 48 49 50
000 ASUS46 KSTO 201415 RWRCA NORTHERN AND CENTRAL CA REGIONAL WEATHER ROUNDUP NATIONAL WEATHER SERVICE SACRAMENTO CA 700 AM PDT FRI MAY 20 2022 NOTE: FAIR INDICATES FEW OR NO CLOUDS BELOW 12,000 FEET WITH NO SIGNIFICANT WEATHER AND/OR OBSTRUCTIONS TO VISIBILITY. CAZ001-003-201500- NORTHWEST AREA CITY SKY/WX TMP DP RH WIND PRES REMARKS CRESCENT CITY SUNNY 47 41 80 N13G18 30.17S HAZE UKIAH MOSUNNY 48 34 58 N3 29.90S $$ CAZ006-505>513-201500- BAY AREA CITY SKY/WX TMP DP RH WIND PRES REMARKS SANTA ROSA SUNNY 50 35 56 N7 29.86S SAN RAFAEL N/A 49 MM MM MISG NAPA SUNNY 58 27 30 NW10 29.83R CONCORD SUNNY 56 34 43 CALM 29.83S OAKLAND CITY N/A 56 MM MM MISG OAKLAND PTSUNNY 55 43 63 CALM 29.84R SAN FRAN CITY N/A 50 MM 66 MISG SAN FRAN ARPT MOSUNNY 51 42 71 W16 29.84R LIVERMORE SUNNY 51 44 77 S3 29.83R HAYWARD SUNNY 52 45 77 CALM 29.84R REDWOOD CITY N/A 51 MM 64 MISG MOFFETT ARPT SUNNY 55 36 47 N6 29.84R SAN JOSE ARPT MOSUNNY 55 39 54 NW6 29.83S $$ CAZ034-037-514>518-201500- CENTRAL COAST CITY SKY/WX TMP DP RH WIND PRES REMARKS WATSONVILLE SUNNY 48 43 82 CALM 29.83R SALINAS MOSUNNY 52 43 71 N6 29.82R MONTEREY SUNNY 51 43 74 SW5 29.84R SAN LUIS OBISP MOSUNNY 50 44 80 SE6 29.79R SANTA MARIA CLOUDY 54 48 80 CALM 29.79R HAZE HALF MOON BAY FAIR 48 45 87 N12 29.85R FOG $$ CAZ015-016-201500- NORTHERN SACRAMENTO VALLEY CITY SKY/WX TMP DP RH WIND PRES REMARKS REDDING SUNNY 57 22 25 N33G41 29.99S RED BLUFF SUNNY 57 22 25 N28G44 29.96R OROVILLE SUNNY 57 28 33 NW13G24 29.87R $$ CAZ016>018-201500- SOUTHERN SACRAMENTO VALLEY CITY SKY/WX TMP DP RH WIND PRES REMARKS AUBURN SUNNY 50 28 43 N3 29.78R BEALE AFB MOSUNNY 56 31 38 N23G30 29.80R LINCOLN FAIR 55 28 35 MISG 29.78R MARYSVILLE MOSUNNY 57 27 31 NW26G35 29.82R SAC INTL ARPT PTSUNNY 58 24 27 NW37G47 29.78R MATHER AIRPORT SUNNY 59 25 27 NW18G25 29.76S DOWNTOWN SAC N/A 58 MM MM MISG SAC EXEC ARPT MOSUNNY 59 26 28 NW23G30 29.79R VACAVILLE LGT RAIN 61 23 23 N24G33 29.83R TRAVIS AFB SUNNY 59 22 24 N20G31 29.81R $$ CAZ019>021-201500- SAN JOAQUIN VALLEY CITY SKY/WX TMP DP RH WIND PRES REMARKS STOCKTON SUNNY 58 27 30 NW17G28 29.79S MODESTO SUNNY 57 27 31 NW20G25 29.78R MERCED SUNNY 60 27 28 NW24G35 29.73R LEMOORE MOSUNNY 63 25 23 NW30G40 29.75R FRESNO PTSUNNY 62 28 27 NW14 29.74R HANFORD CLOUDY 63 27 25 NW15G28 29.75R PORTERVILLE SUNNY 60 41 49 MISG 29.77R BAKERSFIELD SUNNY 64 36 35 NW9 29.77R HAZE $$ CAZ011-012-071-201500- NORTHERN MOUNTAINS CITY SKY/WX TMP DP RH WIND PRES REMARKS YREKA SUNNY 39 26 59 N7 30.17S WCI 34 MOUNT SHASTA SUNNY 37 23 56 CALM 30.11S ALTURAS SUNNY 33 21 61 VRB7 30.11S WCI 27 $$ CAZ011-012-071-201500- SIERRA NEVADA MTNS CITY SKY/WX TMP DP RH WIND PRES REMARKS BLUE CANYON SUNNY 39 18 42 NE16G31 29.86R WCI 30 TRUCKEE SUNNY 28 19 69 CALM 30.02R TAHOE VLY ARPT MOSUNNY 33 12 41 E16G28 29.98R WCI 23 MAMMOTH LAKES FAIR 36 16 44 NW15G21 29.91R WCI 26 $$

USA.gov is the U.S. government's official web portal to all federal, state and local government web resources and services.